Regional Weather Roundup
Issued by NWS

Home | Current Version | Previous Version | Text Only | Print | Product List | Glossary On
Versions: 1 2 3 4 5 6 7 8 9 10 11 12 13 14 15 16 17 18 19 20 21 22 23 24 25 26 27 28 29 30 31 32 33 34 35 36 37 38 39 40 41 42 43 44 45 46 47 48 49 50
000
ASUS43 KLOT 210006
RWRIL

ILLINOIS REGIONAL WEATHER ROUNDUP
NATIONAL WEATHER SERVICE CHICAGO/ROMEOVILLE IL
600 PM CST THU NOV 20 2014

NOTE: "FAIR" INDICATES FEW OR NO CLOUDS BELOW 12,000 FEET WITH NO
SIGNIFICANT WEATHER AND/OR OBSTRUCTIONS TO VISIBILITY.

* THESE STATIONS ARE NOT UNDER NWS QUALITY CONTROL. THEY ALSO MAY NOT
  REPORT WEATHER SUCH AS PRECIPITATION OR FOG.

ILZ001-002-007-009-015-016-024-210100-
NORTHWEST ILLINOIS

CITY           SKY/WX    TMP DP  RH WIND       PRES   REMARKS
MOLINE         CLEAR     22   8  55 NW10      30.23R WCI  11
6HR MIN TEMP:  22; 6HR MAX TEMP:  29;

STERLING*      CLEAR     19   7  58 NW13      30.21R WCI   7
SAVANNA*       CLEAR     21   7  55 NW9       30.22R WCI  10
$$

ILZ003-004-008-010-011-017-018-210100-
NORTH CENTRAL ILLINOIS

CITY           SKY/WX    TMP DP  RH WIND       PRES   REMARKS
ROCKFORD       CLEAR     19   3  49 NW12      30.20R WCI   7
6HR MIN TEMP:  19; 6HR MAX TEMP:  26;

FREEPORT*      CLEAR     18   5  57 NW10      30.20R WCI   6
ROCHELLE*      CLEAR     18   6  60 W9        30.20R WCI   7
DE KALB*       CLEAR     18   5  58 W10       30.18R WCI   6
PERU*          CLEAR     22   7  52 W9        30.22R WCI  12
$$

ILZ005-006-012>014-019>023-210100-
NORTHEAST ILLINOIS

CITY           SKY/WX    TMP DP  RH WIND       PRES   REMARKS
CHICAGO-OHARE  CLEAR     22   3  44 W12       30.16R WCI  10
6HR MIN TEMP:  22; 6HR MAX TEMP:  27;

CHICAGO-MIDWAY FAIR      25   2  37 NW15      30.17R WCI  13
6HR MIN TEMP:  25; 6HR MAX TEMP:  30;

AURORA         CLEAR     20   4  50 W13       30.18R WCI   7
6HR MIN TEMP:  20; 6HR MAX TEMP:  29;

LANSING*       CLEAR     24   4  41 W8G18     30.17R WCI  15
JOLIET*        CLEAR     22   4  45 W9        30.19R WCI  12
WAUKEGAN       FAIR      20   2  45 W9G20     30.14R WCI   9
6HR MIN TEMP:  20; 6HR MAX TEMP:  26;

DUPAGE AIRPORT CLEAR     20   2  45 W9        30.17R WCI   9
6HR MIN TEMP:  20; 6HR MAX TEMP:  28;

KANKAKEE*      CLEAR     24   8  51 W8        30.20R WCI  15
WHEELING       CLEAR     22   3  44 W12G24    30.18R WCI  10
6HR MIN TEMP:  22; 6HR MAX TEMP:  27;

MORRIS*        CLEAR     22   7  54 W10       30.19R WCI  11
ROMEOVILLE*    CLEAR     21   4  47 W12       30.18R WCI  10
NORTHERLY ISL    N/A     25   3  38 W13         N/A  WCI  14
$$

LMZ740>746-210100-
SOUTHERN LAKE MICHIGAN

STATION/POSITION SKY/WX   TEMP    WIND        PRES    VSBY  WAVE
                          AIR SEA DIR/SP/G                  HT/PER
                          (F)     (DEG/KT/KT) (MB)    (MI)  (FT/S)
SOUTHERN BUOY              26 43  290/ 21/ 31 1020.5R         6/ 6
WAUKEGAN HARBOR            23     270/ 11/ 19   N/A
HARRISON CRIB              24     280/ 23/ 29   N/A
BURNHAM HARBOR             25     270/  9/ 19   N/A
CALUMET HARBOR             24     270/  7/ 15 1020.1R
MICHIGAN CITY              27     250/ 29/ 34   N/A
$$

ILZ025>027-034>036-040-047-049-050-058-095>099-210100-
WEST-CENTRAL ILLINOIS

CITY           SKY/WX    TMP DP  RH WIND       PRES   REMARKS
QUINCY         CLEAR     24  10  55 N7        30.24R WCI  16
GALESBURG*     CLEAR     19  10  65 NW3       30.23R
MACOMB*        CLEAR     22  11  61 NW6       30.26R WCI  15
JACKSONVILLE*  FAIR      28  12  51 W5        30.24R WCI  23
PITTSFIELD*    CLEAR     28  13  54 CALM      30.25R
$$

ILZ028>032-037-038-041>044-048-051>054-059>061-210100-
CENTRAL ILLINOIS

CITY           SKY/WX    TMP DP  RH WIND       PRES   REMARKS
PONTIAC        CLEAR     24   9  53 W8        30.21R WCI  15
BLOOMINGTON    CLEAR     25   9  50 NW9       30.21R WCI  16
DECATUR        CLEAR     29  13  51 W6        30.23R WCI  23
PEORIA         CLEAR     27   9  46 W5        30.24R WCI  22
6HR MIN TEMP:  27; 6HR MAX TEMP:  34;

LACON*         CLEAR     23   7  50 NW7       30.22R WCI  15
LINCOLN*       CLEAR     29  12  48 W5        30.24R WCI  24
SPRINGFIELD    CLEAR     27  11  51 W7        30.24R WCI  19
6HR MIN TEMP:  26; 6HR MAX TEMP:  35;

TAYLORVILLE    CLEAR     28  18  64 W3        30.24R
$$

ILZ033-039-045-046-055>057-062-063-210100-
EAST-CENTRAL ILLINOIS

CITY           SKY/WX    TMP DP  RH WIND       PRES   REMARKS
CHAMPAIGN      CLEAR     22  12  65 W7        30.21R WCI  13
DANVILLE*      CLEAR     26  12  55 W8        30.17R WCI  17
RANTOUL*       CLEAR     26  12  55 W9        30.20R WCI  17
MATTOON        CLEAR     27  17  66 SW6       30.22R WCI  20
PARIS*         CLEAR     26  19  74 SW9       30.22R WCI  17
$$

ILZ079-100>102-210100-
SOUTHWEST ILLINOIS

CITY           SKY/WX    TMP DP  RH WIND       PRES   REMARKS
ALTON          CLEAR     30  21  69 W7        30.24R WCI  23
BELLEVILLE     CLEAR     30  19  61 CALM      30.23R
CAHOKIA*       CLEAR     32  19  58 CALM      30.24R HAZE
SPARTA*        CLEAR     29  20  68 CALM      30.24R
$$

ILZ064>066-069>071-074>076-080>082-084>086-088>090-092>094-210100-
SOUTH-CENTRAL ILLINOIS

CITY           SKY/WX    TMP DP  RH WIND       PRES   REMARKS
CARBONDALE     CLEAR     29  17  61 CALM      30.23R
6HR MIN TEMP:  29; 6HR MAX TEMP:  40;

CAIRO*         CLEAR     36  24  63 CALM      30.24R
EFFINGHAM*     CLEAR     27  17  65 CALM      30.24R
MARION         CLEAR     28  19  69 NW6       30.24R WCI  22
MT. VERNON     CLEAR     27  14  59 CALM      30.24S
CENTRALIA*     PTCLDY    28  19  69 CALM      30.24R
SALEM*           N/A     30  22  72 CALM      30.24R
METROPOLIS*    CLEAR     33  25  73 CALM      30.23R
$$

ILZ067-068-072-073-078-083-087-091-210100-
SOUTHEAST ILLINOIS

CITY           SKY/WX    TMP DP  RH WIND       PRES   REMARKS
LAWRENCEVILLE  CLEAR     27  16  63 W5        30.25R WCI  22
FLORA*         CLEAR     28  19  68 CALM      30.25S
FAIRFIELD*     PTCLDY    31  17  55 CALM      30.24R
HARRISBURG*    CLEAR     29  22  73 CALM      30.25S
ROBINSON*      CLEAR     26  18  71 W7        30.26R WCI  19
CARMI*         CLEAR     31  22  67 CALM      30.24S
$$

ABBREVIATIONS USED IN REMARKS
   TC - TEMPERATURE IN CELSIUS
  WCI - WIND CHILL INDEX
   HX - HEAT INDEX
  VSB - VISIBILITY
$$



USA.gov is the U.S. government's official web portal to all federal, state and local government web resources and services.